ECMWFNIL_sfc_temp_003.txt.gz
Temp
36 36 37 37 37 36 36 35 35 35 35 34 33 33 32 32 30 28 28 27 27 26 25 25 25 24 24 23 23 23 22 21 21 21 21 21 21 22 23 23 24 24
35 36 38 37 36 36 35 36 36 36 35 35 34 33 32 31 30 29 28 27 27 26 25 24 24 23 23 23 22 21 21 21 20 23 21 21 22 23 24 24 24 24
34 34 34 34 34 34 34 35 36 36 35 34 33 32 31 31 29 29 28 27 26 25 25 24 24 23 23 22 22 22 21 20 20 21 22 22 23 24 24 24 24 24
34 34 34 34 34 34 34 34 35 35 34 32 32 32 31 30 29 28 27 27 26 25 25 24 24 23 23 22 22 21 21 21 21 22 22 23 24 25 24 24 24 24
34 34 34 33 32 33 33 33 34 34 33 32 32 31 30 29 28 27 26 26 25 25 24 24 24 23 23 22 22 21 21 21 21 22 21 21 23 24 24 24 23 23
32 33 32 32 32 32 32 32 34 33 31 31 30 31 30 29 28 26 26 26 26 25 24 24 23 23 23 22 22 21 21 21 21 21 21 21 21 23 24 24 23 22
32 32 31 31 31 31 32 32 32 32 31 31 31 30 29 28 27 26 26 26 25 25 24 23 23 22 23 22 21 21 21 20 21 21 20 21 22 22 23 22 22 21
32 32 32 31 30 30 31 31 30 31 31 30 29 30 29 28 27 27 26 26 25 24 24 24 23 23 22 22 21 20 20 21 21 20 20 20 20 20 19 20 20 19
31 31 31 30 30 31 31 31 30 30 31 29 29 29 28 28 28 27 27 26 25 24 24 23 23 23 22 21 21 20 20 20 21 20 20 19 18 18 19 20 20 20
29 30 29 30 30 31 30 31 31 30 30 29 29 28 27 28 28 27 27 26 24 24 23 23 22 22 22 21 21 21 20 20 20 20 18 18 18 18 18 18 19 18
29 29 29 29 29 30 29 30 30 30 30 29 29 27 27 27 27 27 26 25 24 23 23 23 22 22 21 21 21 21 20 20 18 17 17 17 17 17 20 18 17 16
29 28 28 29 29 29 29 30 30 30 29 29 28 27 27 27 26 26 26 25 25 24 23 23 23 22 21 21 20 20 20 18 17 17 16 16 17 17 16 16 15 15
28 29 30 30 30 29 30 29 29 30 29 29 28 28 26 25 26 26 26 25 25 24 24 23 23 23 22 21 20 19 17 16 16 16 17 17 15 15 15 15 15 15
30 29 30 31 31 30 30 29 29 29 29 28 28 27 25 25 25 25 26 25 25 24 24 24 23 23 22 20 18 17 16 16 16 17 16 14 14 14 15 16 16 17
31 29 30 31 30 30 30 30 29 29 29 28 27 26 26 26 25 25 25 24 25 24 24 24 23 21 21 19 16 16 14 15 16 16 15 15 15 15 17 18 19 20
29 29 29 30 30 29 30 30 30 29 28 28 27 26 25 26 25 25 24 24 23 24 24 23 22 22 23 25 23 18 14 15 15 16 15 15 15 17 18 19 19 20
28 28 29 29 29 30 29 29 29 29 28 27 26 26 25 24 24 23 23 24 23 23 23 22 22 22 25 27 27 26 19 15 15 16 17 16 17 17 17 17 19 20
28 28 28 28 29 29 30 29 29 28 28 27 26 25 24 24 23 22 23 24 23 23 22 22 21 24 26 27 28 28 26 19 17 17 17 17 18 18 19 19 20 18
29 28 28 28 28 28 30 29 28 28 27 27 26 25 24 23 22 22 22 23 23 22 21 21 21 25 27 28 28 28 28 25 19 19 18 19 19 19 19 19 19 19
29 28 28 28 28 28 29 29 28 27 28 27 26 24 23 22 22 22 22 22 22 22 21 21 21 24 27 28 28 28 28 27 21 20 20 20 20 19 19 19 20 19
29 29 28 28 28 28 28 28 28 28 27 26 25 24 22 21 21 21 21 22 22 22 21 21 21 25 27 28 28 29 29 28 23 22 20 20 20 19 19 19 20 18
31 30 29 28 27 27 27 28 28 27 27 26 25 24 23 22 22 22 21 21 21 21 21 20 21 26 27 28 28 29 29 26 23 21 19 19 18 19 20 20 20 18
31 30 28 27 26 26 26 27 27 27 27 26 24 23 22 21 21 22 22 22 21 21 21 20 21 25 27 28 28 29 27 24 21 19 18 17 17 18 19 19 18 15
33 30 28 26 25 25 26 27 28 28 26 26 24 22 21 22 22 21 22 22 22 21 21 21 21 24 27 28 28 29 27 22 20 18 17 17 16 17 18 18 19 22
34 31 29 27 25 26 26 27 27 27 27 25 24 23 22 22 22 21 21 22 22 22 24 22 21 23 26 27 28 29 27 23 20 17 16 15 14 14 14 13 15 17
33 31 29 27 26 25 25 26 27 26 25 24 24 23 22 22 22 21 21 21 22 22 22 23 21 21 23 27 28 29 29 23 19 17 14 14 14 14 12 11 13 13

ECMWFNIL_sfc_temp_006.txt.gz
Temp
37 36 36 36 36 36 36 35 35 35 35 35 33 33 33 33 34 33 32 31 30 30 29 28 27 26 26 25 25 24 23 22 22 22 22 22 21 21 21 21 21 21
36 36 36 35 35 35 35 35 35 35 35 34 34 33 33 33 33 32 31 30 29 29 29 28 27 26 25 25 25 24 22 22 21 23 21 20 21 21 21 21 21 22
34 34 34 34 35 34 35 34 34 34 33 33 33 32 32 33 32 32 31 30 28 28 28 28 27 26 26 25 25 24 22 21 21 21 21 20 21 20 21 21 21 22
33 34 34 34 34 34 34 32 32 32 32 31 31 32 33 32 32 31 30 29 28 28 27 27 26 26 25 25 24 23 22 21 21 21 20 21 21 21 21 22 22 22
33 33 33 33 33 33 32 32 31 31 31 32 32 32 32 32 30 29 28 27 27 27 26 26 26 25 25 24 23 22 22 21 21 20 20 19 20 21 22 22 22 22
31 32 32 32 32 31 31 31 32 31 31 30 31 32 32 31 29 28 27 27 27 26 26 26 25 25 25 24 23 22 22 21 20 20 19 19 20 21 22 22 21 20
31 30 31 31 30 30 30 31 31 31 30 31 31 32 32 30 28 28 27 26 26 26 26 25 25 25 25 24 23 22 21 21 20 20 19 19 20 20 21 20 19 19
30 30 30 29 29 29 29 30 29 30 30 29 30 31 31 30 28 28 27 26 26 25 25 25 25 25 25 24 22 22 22 21 20 19 19 18 19 19 19 19 19 18
29 29 29 28 28 29 29 29 30 30 31 30 30 30 31 30 28 27 27 26 26 25 25 25 25 24 24 23 23 22 21 21 21 20 19 18 17 17 18 18 18 17
29 29 27 28 28 29 28 29 31 31 31 31 31 31 29 29 28 27 26 26 26 26 25 25 25 24 23 23 23 22 22 21 21 21 19 18 17 17 17 17 16 16
30 29 28 28 28 29 29 30 30 31 31 30 30 29 28 28 27 27 26 25 26 26 25 25 24 24 23 23 23 23 22 22 21 20 19 18 18 17 19 17 16 16
31 29 28 28 29 28 29 29 30 30 31 30 29 30 28 28 27 26 26 26 26 26 26 25 24 24 23 23 22 22 22 21 21 20 20 19 18 18 18 18 17 16
31 30 29 29 29 29 29 29 29 30 30 30 30 30 29 27 27 27 27 27 26 25 25 25 24 24 23 23 22 22 21 20 20 20 19 19 19 18 18 18 17 15
34 32 30 29 29 28 28 28 29 29 30 30 29 28 28 27 26 26 27 26 25 25 25 25 24 23 23 23 22 21 20 20 20 19 19 19 18 18 17 16 15 14
36 34 31 29 28 28 28 28 28 29 30 30 29 28 28 28 27 27 26 25 25 24 24 24 23 22 22 22 21 20 20 19 19 20 19 19 18 18 17 16 15 15
36 34 32 31 29 28 28 28 28 29 30 29 28 28 28 28 27 27 26 24 23 23 23 23 22 23 24 26 25 21 19 19 19 20 19 19 18 17 17 17 16 15
35 34 32 31 30 29 27 28 29 30 30 29 28 28 27 27 27 25 25 24 24 23 22 22 22 22 26 27 27 27 22 19 19 19 19 19 18 17 17 17 16 16
35 34 32 31 31 29 28 28 29 29 29 29 28 27 27 27 25 25 24 24 24 23 22 22 22 24 26 27 28 28 27 21 19 19 19 18 18 18 18 17 17 16
36 35 34 32 31 30 29 29 28 29 29 29 28 28 27 26 25 25 24 23 23 22 22 22 22 25 27 28 28 29 29 26 20 19 19 18 18 18 17 17 17 17
36 35 34 33 32 31 30 30 29 28 29 29 29 28 26 25 25 24 24 23 22 22 22 22 22 24 27 28 28 29 29 29 23 19 19 19 19 18 18 18 18 18
35 35 34 33 32 31 30 29 29 29 29 29 28 27 26 25 24 24 23 23 22 22 22 22 22 25 27 28 28 29 29 29 25 22 20 19 19 19 18 18 18 18
34 34 34 34 33 31 29 29 29 29 28 28 28 27 26 26 25 24 23 22 23 22 21 21 22 26 27 28 28 29 29 27 25 23 20 19 19 19 20 20 19 18
33 33 33 33 33 30 29 28 28 28 28 28 26 26 26 25 24 24 24 23 22 22 21 21 21 25 27 28 28 29 28 25 25 23 21 20 20 20 20 20 19 18
33 33 33 33 32 30 29 29 29 29 28 28 26 26 25 25 25 23 23 23 23 22 21 21 21 24 27 28 28 29 28 25 24 23 21 20 19 20 19 18 19 23
33 33 33 33 32 31 30 29 28 28 29 28 27 26 25 25 24 23 22 23 23 23 24 22 21 23 26 27 28 29 28 25 24 22 20 19 17 16 16 16 16 19
33 33 33 33 33 32 30 29 28 27 27 27 26 26 24 24 23 22 21 21 23 22 22 23 22 22 24 27 28 29 29 26 24 21 19 18 16 14 13 13 14 13

ECMWFNIL_sfc_temp_012.txt.gz
Temp
37 37 36 36 35 34 34 33 33 32 32 32 31 32 32 32 32 32 32 33 33 34 34 34 34 33 33 32 31 30 29 29 29 29 28 28 27 26 25 25 24 23
37 38 38 37 36 36 36 35 33 32 32 32 32 32 32 32 31 32 31 32 33 34 34 34 33 33 32 31 31 29 29 29 28 29 27 27 26 26 26 25 24 23
37 37 36 36 36 35 35 35 34 33 32 32 32 31 31 32 31 31 31 31 32 33 33 33 33 32 32 31 30 29 28 28 27 27 27 26 26 25 26 25 24 23
37 37 36 36 36 36 36 34 34 34 33 31 31 31 31 31 31 31 31 32 32 32 33 32 32 32 31 30 29 28 28 28 27 27 26 26 25 25 25 25 24 23
37 37 37 37 37 36 36 34 34 34 33 33 32 31 30 30 30 30 30 31 32 32 32 31 31 31 31 29 29 27 28 27 27 26 26 25 25 25 24 24 23 22
37 37 37 36 37 36 35 34 34 34 34 32 32 32 30 30 29 29 30 31 32 32 32 31 30 31 30 29 27 27 27 26 27 26 25 25 24 24 23 23 22 21
37 37 37 37 36 36 35 35 34 34 33 33 32 30 30 30 29 29 30 31 31 31 32 30 30 29 29 29 28 27 27 26 26 26 25 25 25 23 23 22 21 20
37 37 37 36 36 36 36 35 34 33 33 33 31 31 30 30 29 30 30 31 31 31 31 31 30 29 29 28 27 26 25 26 26 25 25 24 23 22 21 21 21 19
36 36 36 36 35 36 36 36 35 34 34 33 32 31 31 30 29 30 31 30 30 31 31 30 30 29 29 28 27 26 25 25 26 25 24 23 21 21 21 21 20 19
35 35 35 35 35 35 35 36 36 35 34 33 32 31 31 31 30 30 30 30 30 30 30 30 29 29 29 28 27 26 25 25 25 25 23 23 22 21 21 20 19 19
34 34 33 34 34 35 35 35 35 35 34 33 32 32 31 31 31 30 30 30 30 30 30 29 29 29 28 27 27 27 27 26 25 24 23 22 22 21 22 20 19 19
33 33 33 33 33 33 34 34 35 34 34 33 32 32 32 31 30 30 30 30 30 30 30 29 29 28 28 27 27 27 26 25 25 23 22 22 22 21 21 21 20 19
32 33 33 33 33 33 33 33 33 33 33 33 33 32 32 31 30 30 30 30 30 30 30 29 29 28 28 28 27 26 25 24 24 23 22 22 22 21 21 21 20 20
32 33 33 33 33 33 33 33 33 33 33 33 33 32 31 30 30 30 30 30 30 29 29 29 28 27 28 27 26 25 24 24 23 22 22 21 21 21 21 20 20 20
32 33 33 32 32 32 32 32 33 33 33 33 33 32 31 30 30 30 29 29 29 29 28 29 27 27 27 27 25 24 24 23 23 22 22 21 21 21 20 20 19 19
32 32 32 32 32 32 32 32 32 33 33 34 33 32 31 31 30 29 28 28 27 27 27 27 27 27 28 29 29 25 23 23 23 22 22 21 21 20 20 20 19 19
32 32 31 31 31 31 31 32 33 34 34 34 33 32 31 30 29 28 28 27 27 26 25 26 26 27 29 30 31 30 25 23 22 22 22 21 21 20 19 19 19 19
32 31 31 31 32 32 32 33 33 33 33 33 33 32 31 30 28 28 28 27 27 26 25 25 26 28 30 31 31 31 28 23 23 22 22 21 21 20 20 19 19 18
32 32 32 32 33 33 33 33 33 33 33 33 33 32 31 29 28 27 27 27 27 26 25 25 25 28 30 31 31 32 31 26 23 22 21 21 21 21 20 19 19 17
32 32 32 33 33 33 33 33 33 33 33 34 33 31 30 29 28 27 27 27 26 26 25 25 25 27 30 31 31 32 32 28 22 22 22 21 21 21 21 20 19 18
33 33 32 32 33 33 33 32 32 32 33 33 33 31 30 28 28 27 27 26 26 26 25 25 25 28 30 31 31 32 32 31 23 23 22 21 21 21 21 20 20 19
33 32 32 32 32 32 32 32 32 32 32 33 33 32 30 29 28 27 27 26 26 26 25 24 25 29 30 30 31 32 32 30 23 22 21 21 21 21 21 21 20 19
33 32 32 32 32 31 31 31 32 32 33 33 32 31 30 29 28 27 27 26 26 25 24 24 24 28 30 30 31 32 30 28 23 21 21 20 20 21 21 21 20 19
33 32 31 31 31 31 31 32 32 32 32 33 31 30 30 30 28 27 26 26 25 25 25 24 24 26 29 30 31 31 30 27 24 20 20 20 19 20 20 20 20 22
33 32 32 31 31 31 31 31 31 31 32 33 32 30 29 29 28 26 25 25 25 25 26 25 24 25 28 29 30 31 30 27 25 21 20 19 19 19 20 19 19 22
33 32 32 31 31 31 31 30 31 31 31 31 32 30 28 28 27 25 24 24 25 25 25 25 24 24 26 29 30 31 31 28 26 23 20 19 19 19 18 18 18 19

ECMWFNIL_sfc_temp_018.txt.gz
Temp
44 45 44 44 44 44 43 42 43 42 42 43 42 43 43 44 43 41 40 40 39 39 40 41 42 43 43 43 43 43 43 43 43 44 43 42 42 41 40 39 39 39
44 44 44 44 44 44 44 44 43 43 42 43 43 44 44 44 44 43 41 39 39 38 38 39 40 41 42 43 43 42 42 42 42 43 42 41 41 40 40 39 39 39
43 43 43 43 43 43 43 44 44 43 43 43 43 43 42 43 43 43 42 40 39 39 39 38 38 39 40 41 42 42 42 41 41 42 42 41 41 41 40 39 38 37
43 43 43 43 43 43 44 43 43 43 43 42 42 43 43 42 42 42 41 41 40 39 39 38 38 39 39 39 40 41 42 41 42 42 41 41 42 41 40 40 38 37
42 43 43 43 43 43 43 42 42 43 42 42 43 43 42 42 42 42 42 40 40 39 38 38 38 37 37 38 38 38 40 41 42 41 40 40 41 40 40 39 37 36
42 43 43 43 43 42 42 42 42 42 42 42 42 43 43 42 42 41 42 42 41 40 39 36 38 37 37 36 36 37 39 40 41 40 39 39 39 40 39 38 37 35
41 41 41 42 42 42 42 42 42 42 42 42 42 42 43 42 42 42 42 41 41 41 39 37 37 37 37 36 35 35 37 38 40 40 38 38 39 38 38 37 36 33
40 41 41 41 41 41 41 41 41 41 41 41 41 42 43 42 42 42 42 42 41 41 40 38 38 37 37 37 35 35 35 36 37 38 38 37 37 36 34 34 33 31
41 41 41 40 39 39 39 40 40 40 41 40 40 41 42 42 42 42 42 41 40 40 39 39 38 38 38 36 35 35 34 35 36 36 36 35 34 33 32 32 31 30
40 41 40 40 40 40 39 39 40 39 40 40 40 41 41 42 41 41 40 40 39 39 38 38 39 39 38 37 36 36 35 34 35 34 34 33 32 32 31 30 29 29
38 39 40 40 40 41 40 40 40 40 40 39 40 40 39 40 40 40 39 38 38 38 37 38 38 38 37 37 36 37 36 35 33 32 32 32 31 31 32 30 30 29
38 39 40 40 40 40 41 40 40 39 40 40 38 39 40 40 39 39 38 37 38 38 38 38 38 38 37 35 37 37 36 34 33 32 31 31 31 31 31 31 29 28
38 38 39 39 40 40 40 39 39 39 40 39 40 39 39 38 38 38 38 38 37 37 37 37 37 37 37 37 36 36 33 32 31 31 31 30 30 30 30 31 30 28
37 38 38 38 39 38 39 39 39 39 40 40 39 38 37 37 37 37 38 38 38 37 37 37 36 35 35 35 34 34 33 32 32 31 31 30 29 29 29 29 29 28
37 37 38 38 38 38 39 39 39 40 40 40 38 36 37 37 38 37 36 36 37 37 36 36 35 34 35 35 34 33 32 31 31 31 30 29 28 28 28 28 28 28
35 36 36 37 37 37 38 39 39 39 39 39 37 37 36 37 36 36 35 35 35 35 35 35 35 35 35 34 34 33 32 31 31 31 30 29 28 27 27 27 27 27
35 35 35 35 35 36 37 38 38 38 38 37 37 36 36 35 35 35 34 35 35 34 34 35 34 34 34 35 35 35 33 32 30 30 29 28 27 26 26 26 26 26
33 33 33 33 34 35 37 38 38 36 36 36 35 35 35 35 35 34 34 34 34 34 34 34 34 34 35 35 35 35 35 32 30 29 28 28 27 26 26 25 25 24
31 30 31 32 34 34 36 37 34 34 34 33 34 35 34 34 34 34 33 34 34 33 33 34 34 34 35 35 35 35 35 34 29 29 28 28 27 26 25 25 24 23
30 29 29 31 32 34 35 35 34 34 34 34 34 35 33 34 34 34 34 33 33 33 34 34 34 34 35 35 35 35 35 34 30 28 28 27 26 26 25 24 24 22
29 28 28 29 30 31 33 34 34 35 34 34 34 34 33 33 33 33 33 33 33 34 34 33 33 35 35 34 34 34 34 33 29 27 27 26 26 25 25 24 24 23
27 27 27 27 28 30 31 32 33 33 33 34 34 35 34 34 34 34 33 33 34 33 33 32 33 34 34 34 33 33 33 31 28 26 26 25 25 25 24 24 24 23
26 26 26 27 28 29 30 32 33 34 35 35 34 33 33 34 33 33 34 34 33 33 33 33 32 33 33 33 33 33 32 30 27 26 25 24 24 24 24 24 24 24
25 25 25 26 27 28 30 33 34 35 34 35 33 33 33 33 33 33 34 34 33 33 33 32 31 32 32 32 32 32 31 29 26 26 24 24 23 24 24 24 24 25
24 24 24 26 27 28 30 31 33 34 34 34 33 34 33 34 33 32 33 33 33 33 33 31 30 30 31 31 32 32 32 28 26 24 23 22 22 22 23 23 23 25
23 23 25 26 27 28 30 31 33 33 34 34 34 33 33 33 33 33 32 33 33 33 31 30 30 30 30 30 31 32 32 27 27 24 22 22 22 21 21 22 23 23